Location: Bittelbronn
(48.4454°N, 8.5870°E)
Time: 16:35:34
(UTC+00:00)

Cosmos 1674 Rocket - Pass Details

Date: 23 May 2024
Orbit: 598 x 627 km, 82.5° (Epoch: 16 June)

Event Time Altitude Azimuth Distance (km) Brightness Sun altitude
Exits shadow 02:52:30 - 200° (SSW) 2,440 6.1 -6.5°
Reaches altitude 10° 02:53:37 10° 203° (SSW) 1,999 5.6 -6.4°
Maximum altitude 02:57:59 58° 283° (WNW) 738 3.8 -5.8°
Drops below altitude 10° 03:02:23 10° 2° (N) 2,007 6.8 -5.3°
Sets 03:04:39 0° 7° (N) 2,914 7.8 -5.0°
